Regional Weather Roundup
Issued by NWS

Home | Current Version | Previous Version | Graphics & Text | Print | Product List | Glossary On
Versions: 1 2 3 4 5 6 7 8 9 10 11 12 13 14 15 16 17 18 19 20 21 22 23 24 25 26 27 28 29 30 31 32 33 34 35 36 37 38 39 40 41 42 43 44 45 46 47 48 49
000
ASUS45 KBOU 210707
RWRCO

WEATHER ROUNDUP FOR COLORADO
NATIONAL WEATHER SERVICE DENVER/BOULDER CO
1200 AM MST FRI NOV 21 2014

NOTE: "FAIR" INDICATES FEW OR NO CLOUDS BELOW 12000 FEET WITH NO
SIGNIFICANT WEATHER AND/OR OBSTRUCTIONS TO VISIBILITY.

COZ001>005-013-030-031-210800-
...NORTHWEST COLORADO...

CITY           SKY/WX    TMP DP  RH WIND       PRES   REMARKS
CRAIG          CLOUDY    27  23  85 CALM      30.06S
HAYDEN         CLEAR     28  16  59 E5        30.06R WCI  23
MEEKER         CLOUDY    32  25  75 CALM      30.06S
MOUNT WERNER   NOT AVBL
STEAMBOAT SPGS CLEAR     26  18  70 E5        30.07R WCI  21
WALDEN         CLOUDY    30  21  69 SE6       30.05F WCI  24
$$

COZ006>008-011-210800-
...WEST CENTRAL VALLEYS...

CITY           SKY/WX    TMP DP  RH WIND       PRES   REMARKS
GRAND JUNCTION CLOUDY    34  20  56 CALM      30.08S
MONTROSE       MOCLDY    31  21  66 CALM      30.10S
EAGLE          CLOUDY    25  21  86 CALM      30.12S
RIFLE          CLOUDY    31  22  69 CALM      30.09F
DELTA          PTCLDY    33  18  53 CALM      30.10S
NUCLA          PTCLDY    28  23  80 E6        30.12S WCI  22
$$

COZ017>023-064>068-210800-
...SOUTHWEST COLORADO...

CITY           SKY/WX    TMP DP  RH WIND       PRES   REMARKS
DURANGO        MOCLDY    27  19  72 N3        30.09S
CORTEZ         PTCLDY    24  18  77 E5        30.09R WCI  18
PAGOSA SPRINGS PTCLDY    24  15  67 CALM      30.10F
TELLURIDE      PTCLDY    30  22  73 SE6       30.12S WCI  24
WOLF CREEK PAS PTCLDY    18   9  68 SW18      30.13R WCI   2
$$

COZ009-010-012-014-032>034-037-058>063-210800-
...CENTRAL COLORADO...

CITY           SKY/WX    TMP DP  RH WIND       PRES   REMARKS
ASPEN          PTCLDY    21  12  68 SW6       30.08S WCI  13
BUENA VISTA    NOT AVBL
COPPER MTN     PTCLDY    23  10  58 W10G18    30.10S WCI  12
BERTHOUD PASS  CLOUDY    14  10  85 NW14G24   30.09F WCI  -1
COTTONWOOD PAS PTCLDY    32  14  47 W8        30.07F WCI  25
GUNNISON       CLOUDY    21  12  68 NE6       30.14F WCI  14
KREMMLING      MOCLDY    21  16  79 CALM      30.10S
LEADVILLE      PTCLDY    15   4  61 NE8       30.07R WCI   4
MONARCH PASS   MOCLDY    16  12  86 MISG      30.18F
SALIDA         PTCLDY    37  16  41 SW12G17   30.13S
SUNLIGHT       CLOUDY    23  14  68 CALM      30.12S
WILKERSON PASS MOCLDY    23   5  46 SW7       30.10S WCI  15
$$

COZ069>075-210800-
...SAN LUIS VALLEY/SANGRE DE CRISTO MOUNTAINS...

CITY           SKY/WX    TMP DP  RH WIND       PRES   REMARKS
ALAMOSA        PTCLDY    14   8  77 CALM      30.07S
LA VETA PASS   PTCLDY    23  10  58 S16G25    30.06F WCI  10
SAGUACHE       MOCLDY    28  18  64 N9        30.09S WCI  20
$$

COZ035-036-038>040-210800-
...NORTHERN COLORADO FRONT RANGE...

CITY           SKY/WX    TMP DP  RH WIND       PRES   REMARKS
DENVER INTL AP MOCLDY    35  24  64 W6        29.96F WCI  30
DMNS CITY PARK   N/A     35  23  63 S2        29.97S
AURORA         MOCLDY    37  20  49 SW5       29.97S
FRONT RANGE AP MOCLDY    36  27  69 SW5       29.97F
ERIE MUNI ARPT PTCLDY    29  26  86 CALM      29.97S
BOULDER MUN AP PTCLDY    34  27  75 SW5       29.97R WCI  30
CENTENNIAL     MOCLDY    34  23  64 SE3       29.97S
BROOMFIELD     PTCLDY    37  25  60 CALM      29.98R
FORT COLLINS   MOCLDY    34  25  69 CALM      29.98S
LONGMONT       MOCLDY    31  25  78 SW3       29.99S
$$

COZ041-046-047-076>085-087-088-210800-
...PIKES PEAK/PALMER DIVIDE AND SOUTHERN FOOTHILLS...

CITY           SKY/WX    TMP DP  RH WIND       PRES   REMARKS
COLO. SPRINGS  MOCLDY    30  21  69 NE6       30.01F WCI  24
A. F. ACADEMY  MOCLDY    28  16  62 N6        30.00F WCI  21
ELLICOTT       MOCLDY    25  21  85 CALM      29.99F
FALCON         NOT AVBL
FORT CARSON    MOCLDY    31  21  67 N6        30.00S WCI  25
LIMON          CLOUDY    31  23  72 SE3       30.01S
MONUMENT HILL  MOCLDY    32  18  55 SW7       29.99S WCI  26
TRINIDAD       MOCLDY    31  22  69 W3        29.99S
$$

COZ042>045-048>051-090-091-210800-
...NORTHEAST COLORADO...

CITY           SKY/WX    TMP DP  RH WIND       PRES   REMARKS
GREELEY ARPT   MOCLDY    28  19  69 CALM      29.98S
AKRON          CLOUDY    37  23  56 S13       29.97S
BURLINGTON     MOCLDY    39  23  52 S14       30.01S
WRAY           CLOUDY    31  19  61 E6        30.01S WCI  25
STERLING       CLOUDY    34  21  60 CALM      29.97S
HOLYOKE        MOCLDY    27  18  69 S5        30.00S WCI  21
FORT MORGAN    CLOUDY    32  20  60 SW6       29.97F WCI  26
$$

COZ086-089-092>099-210800-
...SOUTHEAST COLORADO...

CITY           SKY/WX    TMP DP  RH WIND       PRES   REMARKS
PUEBLO         PTCLDY    31  26  82 W6        30.00R WCI  25
LA JUNTA       PTCLDY    30  26  85 E3        30.00S
LAMAR          MOCLDY    31  27  85 E3        30.02S
SPRINGFIELD      N/A     26  24  92 SW5       30.02F WCI  20
$$


USA.gov is the U.S. government's official web portal to all federal, state and local government web resources and services.